Weather History for KMSY - October, 2012

Change the Weather History Date:

Saturday, October 6, 2012

  Actual Average Record
Temperature  
Mean Temperature 75 °F -  
Max Temperature 86 °F 82 °F 91 °F (1954)
Min Temperature 64 °F 64 °F 49 °F (1985)
Cooling Degree Days 10    
Growing Degree Days 25 (Base 50)    
Moisture  
Dew Point 65 °F    
Average Humidity 70    
Maximum Humidity 96    
Minimum Humidity 36    
Precipitation  
Precipitation 0.00 in - - ()
Sea Level Pressure  
Sea Level Pressure 30.01 in    
Wind  
Wind Speed 3 mph (North)    
Max Wind Speed 15 mph    
Max Gust Speed -    
Visibility 8 miles    
Events Fog    
Averages and records for this station are not official NWS values.
T = Trace of Precipitation, MM = Missing Value Source: NWS Daily Summary

Daily Weather History Graph

Daily Weather History Graph

Search for Another Location

Airport or City:

Trip Planner

Search our weather history database for the weather conditions in past years. The results will help you decide how hot, cold, wet, or windy it might be!

Date:

Astronomy

Oct. 06, 2012 Rise Set
Actual Time 6:57 AM CDT 6:39 PM CDT
Civil Twilight 6:33 AM CDT 7:03 PM CDT
Nautical Twilight 6:05 AM CDT 7:31 PM CDT
Astronomical Twilight 5:38 AM CDT 7:59 PM CDT
Moon 11:14 PM CDT (10/6) 12:32 PM CDT (10/6)
Length of Visible Light 12h 30m
Length of Day
11h 42m
Waning Gibbous, 65% of the Moon is Illuminated
Oct 6
Waning Gibbous
Oct 8
Last Quarter
Oct 15
New
Oct 21
First Quarter
Oct 29
Full

Hourly Weather History & Observations

Time (CDT) Temp. Heat Index Dew Point Humidity Pressure Visibility Wind Dir Wind Speed Gust Speed Precip Events Conditions
12:53 AM 70.0 °F - 66.9 °F 90% 30.03 in 7.0 mi Calm Calm - N/A   Clear
1:53 AM 71.1 °F - 66.9 °F 87% 30.04 in 8.0 mi Calm Calm - N/A   Clear
2:53 AM 68.0 °F - 66.0 °F 93% 30.02 in 7.0 mi Calm Calm - N/A Fog Shallow Fog
3:53 AM 66.9 °F - 64.9 °F 93% 30.01 in 5.0 mi West 3.5 mph - N/A Fog Clear
4:53 AM 68.0 °F - 66.0 °F 93% 30.01 in 5.0 mi Calm Calm - N/A Fog Clear
5:53 AM 68.0 °F - 66.0 °F 93% 30.02 in 4.0 mi Calm Calm - N/A Fog Clear
6:53 AM 66.0 °F - 64.9 °F 96% 30.03 in 3.0 mi Calm Calm - N/A Fog Partly Cloudy
7:53 AM 69.1 °F - 68.0 °F 96% 30.03 in 4.0 mi Calm Calm - N/A Fog Partly Cloudy
8:53 AM 77.0 °F - 70.0 °F 79% 30.04 in 8.0 mi North 4.6 mph - N/A   Clear
9:53 AM 80.1 °F 82.3 °F 66.9 °F 64% 30.05 in 6.0 mi North 5.8 mph - N/A   Haze
10:53 AM 82.0 °F 83.8 °F 64.9 °F 56% 30.04 in 7.0 mi Variable 4.6 mph - N/A   Scattered Clouds
11:53 AM 84.0 °F 85.8 °F 64.9 °F 53% 30.03 in 10.0 mi Variable 4.6 mph - N/A   Scattered Clouds
12:53 PM 84.9 °F 85.4 °F 62.1 °F 46% 30.01 in 10.0 mi NE 6.9 mph - N/A   Scattered Clouds
1:53 PM 84.9 °F 85.0 °F 61.0 °F 44% 29.98 in 10.0 mi Variable 3.5 mph - N/A   Scattered Clouds
2:53 PM 86.0 °F 86.8 °F 63.0 °F 46% 29.96 in 10.0 mi North 4.6 mph - N/A   Scattered Clouds
3:53 PM 86.0 °F 86.8 °F 63.0 °F 46% 29.96 in 10.0 mi North 6.9 mph - N/A   Scattered Clouds
4:53 PM 84.9 °F 86.1 °F 64.0 °F 49% 29.95 in 10.0 mi North 5.8 mph - N/A   Partly Cloudy
5:53 PM 84.2 °F 85.0 °F 62.6 °F 48% 29.95 in 10.0 mi Calm Calm - N/A   Partly Cloudy
6:53 PM 80.1 °F 81.7 °F 64.0 °F 58% 29.96 in 10.0 mi North 4.6 mph - N/A   Partly Cloudy
7:53 PM 79.0 °F - 68.0 °F 69% 29.98 in 10.0 mi North 11.5 mph - N/A   Mostly Cloudy
8:53 PM 77.0 °F - 68.0 °F 74% 30.00 in 10.0 mi NNE 11.5 mph - N/A   Mostly Cloudy
9:53 PM 75.0 °F - 66.9 °F 76% 30.02 in 10.0 mi NNE 15.0 mph - N/A   Scattered Clouds
10:53 PM 72.0 °F - 64.9 °F 78% 30.02 in 10.0 mi NNE 15.0 mph - N/A   Scattered Clouds
11:53 PM 71.1 °F - 64.0 °F 78% 30.03 in 10.0 mi NNE 12.7 mph - N/A   Scattered Clouds